| time (UTC) | temp F | wind direction | speed knots | gust knots | rain 1hr in | rain 24hr in | rain mn in | humidity % | barometer mb |
| 20260507070116 | 57 | 24 | 9.6 | 15.6 | 0.00 | 0.16 | 0.10 | 93 | 1014.4 |
| 20260507065603 | 57 | 1 | 11.3 | 15.6 | 0.01 | 0.16 | 0.10 | 93 | 1014.3 |
| 20260507065100 | 57 | 21 | 10.4 | 15.6 | 0.02 | 0.16 | 0.10 | 93 | 1014.2 |
| 20260507064608 | 57 | 13 | 8.7 | 14.8 | 0.03 | 0.16 | 0.10 | 94 | 1014.0 |
| 20260507064058 | 57 | 354 | 7.0 | 15.6 | 0.05 | 0.16 | 0.10 | 94 | 1013.8 |
| 20260507063559 | 57 | 56 | 10.4 | 16.5 | 0.06 | 0.16 | 0.10 | 94 | 1013.8 |
| 20260507063100 | 58 | 9 | 12.2 | 17.4 | 0.07 | 0.16 | 0.10 | 93 | 1014.0 |
| 20260507062554 | 58 | 4 | 10.4 | 16.5 | 0.07 | 0.16 | 0.10 | 93 | 1014.2 |
| 20260507062055 | 59 | 341 | 10.4 | 19.1 | 0.08 | 0.16 | 0.10 | 93 | 1014.4 |
| 20260507061552 | 59 | 330 | 11.3 | 19.1 | 0.08 | 0.16 | 0.10 | 92 | 1014.4 |
| 20260507061050 | 59 | 345 | 10.4 | 14.8 | 0.08 | 0.16 | 0.10 | 93 | 1014.4 |
| 20260507060552 | 59 | 359 | 9.6 | 13.0 | 0.10 | 0.16 | 0.10 | 95 | 1014.2 |
| 20260507060053 | 59 | 49 | 4.3 | 9.6 | 0.10 | 0.16 | 0.10 | 94 | 1013.6 |
| 20260507055547 | 59 | 354 | 4.3 | 10.4 | 0.09 | 0.15 | 0.09 | 94 | 1013.9 |
| 20260507055047 | 59 | 4 | 5.2 | 13.9 | 0.08 | 0.14 | 0.08 | 94 | 1013.9 |
| 20260507054548 | 60 | 21 | 7.8 | 13.9 | 0.07 | 0.13 | 0.07 | 92 | 1014.1 |
| 20260507054045 | 60 | 8 | 9.6 | 13.9 | 0.05 | 0.11 | 0.05 | 91 | 1014.9 |
| 20260507053543 | 61 | 342 | 9.6 | 13.0 | 0.04 | 0.10 | 0.04 | 90 | 1015.3 |
| 20260507053042 | 60 | 346 | 10.4 | 13.0 | 0.03 | 0.09 | 0.03 | 91 | 1015.1 |
| 20260507052543 | 60 | 351 | 7.0 | 13.9 | 0.03 | 0.09 | 0.03 | 93 | 1014.7 |
| 20260507052041 | 60 | 352 | 9.6 | 14.8 | 0.02 | 0.08 | 0.02 | 92 | 1014.6 |
| 20260507051540 | 61 | 341 | 9.6 | 14.8 | 0.02 | 0.08 | 0.02 | 92 | 1014.7 |
| 20260507051037 | 61 | 63 | 6.1 | 15.6 | 0.02 | 0.08 | 0.02 | 90 | 1014.6 |
| 20260507050540 | 62 | 339 | 13.9 | 15.6 | 0.00 | 0.06 | 0.00 | 88 | 1015.0 |
| 20260507050037 | 63 | 332 | 12.2 | 14.8 | 0.00 | 0.06 | 0.00 | 87 | 1015.1 |
| 20260507045533 | 64 | 329 | 9.6 | 12.2 | 0.00 | 0.06 | 0.00 | 87 | 1014.7 |
| 20260507045033 | 64 | 328 | 7.8 | 10.4 | 0.00 | 0.06 | 0.00 | 85 | 1014.5 |
| 20260507044531 | 64 | 341 | 7.0 | 8.7 | 0.00 | 0.06 | 0.00 | 84 | 1014.4 |
| 20260507044032 | 64 | 326 | 7.0 | 7.8 | 0.00 | 0.06 | 0.00 | 85 | 1014.3 |
| 20260507043532 | 64 | 326 | 6.1 | 9.6 | 0.00 | 0.06 | 0.00 | 85 | 1014.3 |
| 20260507043030 | 64 | 332 | 7.8 | 9.6 | 0.00 | 0.06 | 0.00 | 85 | 1014.2 |
| 20260507042529 | 65 | 323 | 5.2 | 11.3 | 0.00 | 0.06 | 0.00 | 85 | 1014.2 |
| 20260507042129 | 65 | 353 | 7.8 | 11.3 | 0.00 | 0.06 | 0.00 | 85 | 1014.3 |
| 20260507041528 | 65 | 342 | 7.8 | 11.3 | 0.00 | 0.06 | 0.00 | 87 | 1014.2 |
| 20260507041026 | 65 | 329 | 7.8 | 11.3 | 0.00 | 0.06 | 0.00 | 89 | 1014.1 |
| 20260507040524 | 64 | 325 | 7.0 | 8.7 | 0.00 | 0.06 | 0.00 | 93 | 1014.2 |
| 20260507040026 | 65 | 321 | 5.2 | 11.3 | 0.00 | 0.06 | 0.06 | 93 | 1014.1 |
| 20260507035523 | 64 | 316 | 8.7 | 11.3 | 0.00 | 0.06 | 0.06 | 93 | 1014.2 |
| 20260507035023 | 64 | 332 | 3.5 | 5.2 | 0.00 | 0.06 | 0.06 | 95 | 1014.1 |
| 20260507034532 | 64 | 331 | 2.6 | 5.2 | 0.00 | 0.06 | 0.06 | 94 | 1014.0 |
| 20260507034022 | 64 | 321 | 3.5 | 7.0 | 0.00 | 0.06 | 0.06 | 94 | 1014.0 |
| 20260507033526 | 65 | 314 | 5.2 | 7.0 | 0.00 | 0.06 | 0.06 | 92 | 1014.0 |
| 20260507033022 | 66 | 199 | 1.7 | 3.5 | 0.00 | 0.06 | 0.06 | 90 | 1013.7 |
| 20260507032522 | 66 | 209 | 1.7 | 6.1 | 0.00 | 0.06 | 0.06 | 90 | 1013.6 |
| 20260507032021 | 66 | 191 | 2.6 | 6.1 | 0.00 | 0.06 | 0.06 | 89 | 1013.5 |
| 20260507031521 | 66 | 198 | 2.6 | 7.8 | 0.00 | 0.06 | 0.06 | 89 | 1013.4 |
| 20260507031020 | 66 | 189 | 5.2 | 7.8 | 0.00 | 0.06 | 0.06 | 89 | 1013.6 |
| 20260507030520 | 67 | 193 | 3.5 | 7.0 | 0.00 | 0.06 | 0.06 | 89 | 1013.7 |
| 20260507030020 | 67 | 154 | 3.5 | 7.0 | 0.00 | 0.06 | 0.06 | 89 | 1013.6 |
| 20260507025519 | 67 | 172 | 4.3 | 7.8 | 0.00 | 0.06 | 0.06 | 89 | 1013.6 |
| 20260507025019 | 66 | 160 | 2.6 | 7.8 | 0.00 | 0.06 | 0.06 | 89 | 1013.4 |
| 20260507024523 | 66 | 170 | 3.5 | 7.8 | 0.00 | 0.06 | 0.06 | 90 | 1013.4 |
| 20260507024021 | 66 | 180 | 2.6 | 5.2 | 0.00 | 0.06 | 0.06 | 91 | 1013.4 |
| 20260507023519 | 65 | 236 | 1.7 | 5.2 | 0.00 | 0.06 | 0.06 | 92 | 1013.4 |
| 20260507023023 | 65 | 149 | 0.9 | 5.2 | 0.00 | 0.06 | 0.06 | 92 | 1013.4 |
| 20260507022519 | 65 | 161 | 0.9 | 2.6 | 0.00 | 0.06 | 0.06 | 93 | 1013.6 |
| 20260507022023 | 64 | 120 | 0.9 | 2.6 | 0.00 | 0.06 | 0.06 | 93 | 1013.7 |
| 20260507021519 | 64 | 167 | 0.0 | 2.6 | 0.00 | 0.06 | 0.06 | 93 | 1013.7 |
| 20260507021018 | 64 | 147 | 0.0 | 2.6 | 0.00 | 0.06 | 0.06 | 93 | 1013.5 |
| 20260507020521 | 64 | 130 | 0.0 | 1.7 | 0.00 | 0.06 | 0.06 | 93 | 1013.5 |
| 20260507020028 | 64 | 131 | 0.0 | 0.9 | 0.00 | 0.06 | 0.06 | 93 | 1013.5 |
| 20260507015517 | 64 | 131 | 0.0 | 0.0 | 0.00 | 0.06 | 0.06 | 93 | 1013.6 |
| 20260507015017 | 64 | 131 | 0.0 | 0.0 | 0.00 | 0.06 | 0.06 | 93 | 1013.8 |
| 20260507014517 | 64 | 131 | 0.0 | 0.0 | 0.00 | 0.06 | 0.06 | 93 | 1014.0 |
| 20260507014017 | 64 | 131 | 0.0 | 0.0 | 0.00 | 0.06 | 0.06 | 93 | 1014.3 |
| 20260507013516 | 64 | 131 | 0.0 | 0.0 | 0.00 | 0.06 | 0.06 | 93 | 1014.3 |
| 20260507013033 | 64 | 131 | 0.0 | 0.0 | 0.00 | 0.06 | 0.06 | 93 | 1014.4 |
| 20260507012516 | 64 | 131 | 0.0 | 0.0 | 0.00 | 0.06 | 0.06 | 93 | 1014.3 |
| 20260507012016 | 64 | 131 | 0.0 | 0.0 | 0.00 | 0.06 | 0.06 | 93 | 1014.3 |
| 20260507011516 | 64 | 131 | 0.0 | 0.9 | 0.00 | 0.06 | 0.06 | 93 | 1014.1 |
| 20260507011014 | 64 | 131 | 0.0 | 0.9 | 0.00 | 0.06 | 0.06 | 93 | 1014.0 |
| 20260507010515 | 64 | 139 | 0.0 | 0.0 | 0.00 | 0.06 | 0.06 | 93 | 1014.0 |
| 20260507010015 | 64 | 139 | 0.0 | 0.9 | 0.00 | 0.06 | 0.06 | 92 | 1014.0 |
| 20260507005516 | 64 | 164 | 0.0 | 0.0 | 0.00 | 0.06 | 0.06 | 92 | 1013.6 |
| 20260507005014 | 64 | 206 | 0.0 | 0.0 | 0.00 | 0.06 | 0.06 | 92 | 1013.8 |
| 20260507004514 | 64 | 209 | 0.0 | 0.0 | 0.00 | 0.06 | 0.06 | 91 | 1013.9 |
| 20260507004014 | 64 | 209 | 0.0 | 0.0 | 0.00 | 0.06 | 0.06 | 91 | 1013.9 |
| 20260507003515 | 65 | 209 | 0.0 | 0.0 | 0.00 | 0.06 | 0.06 | 90 | 1013.7 |
| 20260507003013 | 65 | 209 | 0.0 | 0.0 | 0.00 | 0.06 | 0.06 | 90 | 1013.7 |
| 20260507002513 | 65 | 209 | 0.0 | 0.0 | 0.00 | 0.06 | 0.06 | 89 | 1013.7 |
| 20260507002013 | 66 | 209 | 0.0 | 0.9 | 0.00 | 0.06 | 0.06 | 88 | 1013.9 |
| 20260507001513 | 66 | 209 | 0.0 | 2.6 | 0.00 | 0.06 | 0.06 | 87 | 1013.7 |
| 20260507001014 | 66 | 193 | 0.0 | 2.6 | 0.00 | 0.06 | 0.06 | 87 | 1013.7 |
| 20260507000512 | 66 | 173 | 0.0 | 2.6 | 0.00 | 0.06 | 0.06 | 87 | 1013.8 |
| 20260507000015 | 67 | 156 | 0.0 | 3.5 | 0.00 | 0.06 | 0.06 | 87 | 1013.6 |
| 20260506235515 | 67 | 189 | 0.9 | 5.2 | 0.00 | 0.06 | 0.06 | 87 | 1013.5 |
| 20260506235011 | 67 | 191 | 1.7 | 5.2 | 0.00 | 0.06 | 0.06 | 87 | 1013.4 |
| 20260506234518 | 66 | 184 | 2.6 | 7.0 | 0.00 | 0.06 | 0.06 | 87 | 1013.4 |
| 20260506234011 | 66 | 171 | 3.5 | 6.1 | 0.00 | 0.06 | 0.06 | 87 | 1013.1 |
| 20260506233511 | 66 | 194 | 2.6 | 4.3 | 0.00 | 0.06 | 0.06 | 88 | 1013.1 |
| 20260506233013 | 66 | 143 | 1.7 | 4.3 | 0.00 | 0.06 | 0.06 | 89 | 1013.1 |
| 20260506232510 | 66 | 198 | 1.7 | 5.2 | 0.00 | 0.06 | 0.06 | 89 | 1013.2 |
| 20260506232010 | 66 | 189 | 2.6 | 5.2 | 0.00 | 0.06 | 0.06 | 88 | 1013.2 |
| 20260506231509 | 67 | 201 | 3.5 | 5.2 | 0.00 | 0.06 | 0.06 | 87 | 1013.3 |
| 20260506231008 | 67 | 174 | 3.5 | 5.2 | 0.00 | 0.06 | 0.06 | 87 | 1013.1 |
| 20260506230508 | 66 | 167 | 2.6 | 5.2 | 0.00 | 0.06 | 0.06 | 88 | 1013.1 |
| 20260506230009 | 66 | 188 | 2.6 | 5.2 | 0.00 | 0.06 | 0.06 | 89 | 1013.0 |
| 20260506225508 | 66 | 167 | 2.6 | 4.3 | 0.00 | 0.06 | 0.06 | 90 | 1013.0 |
| 20260506225008 | 66 | 203 | 2.6 | 5.2 | 0.00 | 0.06 | 0.06 | 90 | 1013.2 |
| 20260506224509 | 66 | 205 | 3.5 | 7.8 | 0.00 | 0.06 | 0.06 | 90 | 1013.2 |
| 20260506224008 | 66 | 206 | 5.2 | 7.8 | 0.00 | 0.06 | 0.06 | 89 | 1013.1 |
| 20260506223507 | 66 | 183 | 3.5 | 6.1 | 0.00 | 0.06 | 0.06 | 89 | 1013.1 |
| 20260506223007 | 66 | 201 | 4.3 | 7.8 | 0.00 | 0.06 | 0.06 | 89 | 1013.1 |
| 20260506222507 | 66 | 202 | 4.3 | 10.4 | 0.00 | 0.06 | 0.06 | 89 | 1013.2 |
| 20260506222007 | 67 | 212 | 6.1 | 11.3 | 0.00 | 0.06 | 0.06 | 88 | 1013.1 |
| 20260506221507 | 66 | 224 | 7.0 | 11.3 | 0.00 | 0.06 | 0.06 | 88 | 1013.3 |
| 20260506221005 | 66 | 217 | 7.8 | 10.4 | 0.00 | 0.06 | 0.06 | 88 | 1013.3 |
| 20260506220505 | 66 | 212 | 7.8 | 10.4 | 0.00 | 0.06 | 0.06 | 88 | 1013.2 |
| 20260506220015 | 66 | 216 | 7.8 | 10.4 | 0.00 | 0.06 | 0.06 | 88 | 1013.2 |
| 20260506215509 | 67 | 210 | 7.8 | 12.2 | 0.00 | 0.06 | 0.06 | 88 | 1013.1 |
| 20260506215006 | 66 | 211 | 7.8 | 12.2 | 0.00 | 0.06 | 0.06 | 88 | 1013.2 |
| 20260506214507 | 66 | 198 | 7.0 | 13.0 | 0.00 | 0.06 | 0.06 | 88 | 1013.2 |
| 20260506214006 | 67 | 203 | 7.0 | 13.0 | 0.00 | 0.06 | 0.06 | 88 | 1013.2 |
| 20260506213504 | 67 | 202 | 8.7 | 11.3 | 0.00 | 0.06 | 0.06 | 88 | 1013.1 |
| 20260506213004 | 67 | 211 | 7.8 | 12.2 | 0.00 | 0.06 | 0.06 | 87 | 1013.1 |
| 20260506212503 | 67 | 210 | 9.6 | 13.0 | 0.00 | 0.06 | 0.06 | 87 | 1013.0 |
| 20260506212004 | 67 | 217 | 9.6 | 13.9 | 0.00 | 0.06 | 0.06 | 87 | 1012.9 |
| 20260506211503 | 67 | 218 | 11.3 | 13.9 | 0.00 | 0.06 | 0.06 | 87 | 1012.9 |
| 20260506211003 | 67 | 214 | 11.3 | 13.9 | 0.00 | 0.06 | 0.06 | 86 | 1013.0 |
| 20260506210503 | 67 | 214 | 10.4 | 13.9 | 0.00 | 0.06 | 0.06 | 87 | 1012.9 |
| 20260506210007 | 67 | 213 | 12.2 | 16.5 | 0.00 | 0.06 | 0.06 | 86 | 1012.7 |
| 20260506205502 | 67 | 207 | 11.3 | 17.4 | 0.00 | 0.06 | 0.06 | 86 | 1012.6 |
| 20260506205001 | 67 | 213 | 13.0 | 19.1 | 0.00 | 0.06 | 0.06 | 86 | 1012.8 |
| 20260506204501 | 66 | 227 | 12.2 | 19.1 | 0.00 | 0.06 | 0.06 | 86 | 1012.8 |
| 20260506204001 | 66 | 210 | 10.4 | 15.6 | 0.00 | 0.06 | 0.06 | 87 | 1012.7 |
| 20260506203501 | 66 | 212 | 9.6 | 13.0 | 0.00 | 0.06 | 0.06 | 87 | 1012.8 |
| 20260506203001 | 66 | 210 | 10.4 | 13.0 | 0.00 | 0.06 | 0.06 | 87 | 1012.9 |
| 20260506202501 | 66 | 204 | 8.7 | 12.2 | 0.00 | 0.06 | 0.06 | 88 | 1012.9 |
| 20260506202001 | 66 | 204 | 9.6 | 12.2 | 0.00 | 0.06 | 0.06 | 87 | 1012.8 |
| 20260506201604 | 66 | 215 | 7.0 | 13.0 | 0.00 | 0.06 | 0.06 | 88 | 1012.8 |
| 20260506201059 | 66 | 162 | 8.7 | 13.9 | 0.00 | 0.06 | 0.06 | 87 | 1012.7 |
| 20260506200559 | 66 | 175 | 7.8 | 13.0 | 0.00 | 0.06 | 0.06 | 87 | 1012.8 |
| 20260506200059 | 66 | 195 | 7.8 | 14.8 | 0.00 | 0.06 | 0.06 | 87 | 1012.7 |
| 20260506195601 | 66 | 207 | 8.7 | 14.8 | 0.00 | 0.06 | 0.06 | 87 | 1012.9 |
| 20260506195058 | 66 | 193 | 8.7 | 15.6 | 0.00 | 0.06 | 0.06 | 88 | 1013.0 |
| 20260506194557 | 66 | 207 | 11.3 | 16.5 | 0.00 | 0.06 | 0.06 | 87 | 1013.1 |
| 20260506194057 | 66 | 179 | 11.3 | 16.5 | 0.00 | 0.06 | 0.06 | 88 | 1013.1 |
| 20260506193555 | 66 | 197 | 11.3 | 16.5 | 0.00 | 0.06 | 0.06 | 88 | 1013.2 |
| 20260506193055 | 65 | 195 | 13.0 | 16.5 | 0.00 | 0.06 | 0.06 | 88 | 1013.3 |
| 20260506192555 | 65 | 208 | 13.0 | 18.2 | 0.00 | 0.06 | 0.06 | 88 | 1013.3 |
| 20260506192056 | 65 | 211 | 13.9 | 18.2 | 0.00 | 0.06 | 0.06 | 87 | 1013.3 |
| 20260506191557 | 65 | 191 | 12.2 | 15.6 | 0.00 | 0.06 | 0.06 | 88 | 1013.4 |
| 20260506191054 | 65 | 204 | 11.3 | 14.8 | 0.00 | 0.06 | 0.06 | 88 | 1013.4 |
| 20260506190553 | 65 | 205 | 12.2 | 16.5 | 0.00 | 0.06 | 0.06 | 88 | 1013.4 |
| 20260506190055 | 65 | 205 | 12.2 | 16.5 | 0.00 | 0.06 | 0.06 | 88 | 1013.5 |
| 20260506185551 | 65 | 204 | 10.4 | 17.4 | 0.00 | 0.06 | 0.06 | 88 | 1013.5 |
| 20260506185051 | 65 | 193 | 12.2 | 17.4 | 0.00 | 0.06 | 0.06 | 87 | 1013.6 |
| 20260506184551 | 65 | 203 | 13.0 | 17.4 | 0.00 | 0.06 | 0.06 | 87 | 1013.7 |
| 20260506184051 | 65 | 208 | 13.0 | 20.9 | 0.00 | 0.06 | 0.06 | 88 | 1013.7 |
| 20260506183550 | 65 | 209 | 14.8 | 20.9 | 0.00 | 0.06 | 0.06 | 88 | 1013.7 |
| 20260506183050 | 65 | 191 | 13.9 | 20.0 | 0.00 | 0.06 | 0.06 | 88 | 1013.7 |
| 20260506182548 | 65 | 207 | 14.8 | 20.0 | 0.00 | 0.06 | 0.06 | 88 | 1013.9 |
| 20260506182048 | 65 | 212 | 15.6 | 19.1 | 0.00 | 0.06 | 0.06 | 87 | 1014.0 |
| 20260506181548 | 65 | 191 | 13.0 | 18.2 | 0.00 | 0.06 | 0.06 | 88 | 1013.9 |
| 20260506181047 | 64 | 204 | 13.9 | 20.0 | 0.00 | 0.06 | 0.06 | 89 | 1014.0 |
| 20260506180547 | 64 | 209 | 13.0 | 19.1 | 0.00 | 0.06 | 0.06 | 89 | 1014.1 |
| 20260506180047 | 64 | 186 | 14.8 | 18.2 | 0.00 | 0.06 | 0.06 | 88 | 1014.0 |
| 20260506175547 | 64 | 206 | 13.0 | 20.0 | 0.00 | 0.06 | 0.06 | 89 | 1014.1 |
| 20260506175046 | 64 | 196 | 13.0 | 20.0 | 0.00 | 0.06 | 0.06 | 89 | 1014.3 |
| 20260506174547 | 64 | 201 | 15.6 | 20.0 | 0.00 | 0.06 | 0.06 | 88 | 1014.3 |
| 20260506174045 | 64 | 200 | 13.9 | 20.0 | 0.00 | 0.06 | 0.06 | 89 | 1014.4 |
| 20260506173547 | 64 | 194 | 15.6 | 22.6 | 0.00 | 0.06 | 0.06 | 89 | 1014.5 |
| 20260506173056 | 64 | 209 | 17.4 | 23.5 | 0.00 | 0.06 | 0.06 | 88 | 1014.4 |
| 20260506172544 | 64 | 202 | 18.2 | 23.5 | 0.00 | 0.06 | 0.06 | 88 | 1014.4 |
| 20260506172044 | 64 | 195 | 17.4 | 21.7 | 0.00 | 0.06 | 0.06 | 88 | 1014.3 |
| 20260506171551 | 64 | 144 | 15.6 | 20.9 | 0.00 | 0.06 | 0.06 | 88 | 1014.3 |
| 20260506171042 | 64 | 184 | 15.6 | 20.9 | 0.00 | 0.06 | 0.06 | 88 | 1014.2 |
| 20260506170542 | 64 | 200 | 15.6 | 21.7 | 0.00 | 0.06 | 0.06 | 88 | 1014.2 |
| 20260506170042 | 64 | 205 | 13.9 | 25.2 | 0.00 | 0.06 | 0.06 | 89 | 1014.3 |
| 20260506165543 | 64 | 208 | 13.9 | 25.2 | 0.00 | 0.06 | 0.06 | 88 | 1014.2 |
| 20260506165041 | 64 | 204 | 17.4 | 23.5 | 0.00 | 0.06 | 0.06 | 87 | 1014.3 |
| 20260506164552 | 64 | 181 | 13.0 | 22.6 | 0.00 | 0.06 | 0.06 | 88 | 1014.0 |
| 20260506164038 | 64 | 185 | 12.2 | 20.9 | 0.00 | 0.06 | 0.06 | 88 | 1014.1 |
| 20260506163538 | 64 | 197 | 10.4 | 19.1 | 0.01 | 0.06 | 0.06 | 89 | 1014.2 |
| 20260506163041 | 64 | 184 | 12.2 | 19.1 | 0.01 | 0.06 | 0.06 | 89 | 1014.4 |
| 20260506162538 | 64 | 165 | 10.4 | 22.6 | 0.01 | 0.06 | 0.06 | 89 | 1014.3 |
| 20260506162038 | 64 | 206 | 13.0 | 22.6 | 0.02 | 0.06 | 0.06 | 88 | 1014.7 |
| 20260506161538 | 64 | 195 | 14.8 | 20.9 | 0.02 | 0.06 | 0.06 | 87 | 1014.5 |
| 20260506161035 | 64 | 158 | 10.4 | 16.5 | 0.03 | 0.06 | 0.06 | 87 | 1014.5 |
| 20260506160535 | 64 | 206 | 9.6 | 16.5 | 0.04 | 0.06 | 0.06 | 87 | 1014.5 |
| 20260506160037 | 64 | 154 | 8.7 | 15.6 | 0.04 | 0.06 | 0.06 | 88 | 1014.3 |
| 20260506155533 | 63 | 164 | 7.0 | 13.0 | 0.05 | 0.06 | 0.06 | 89 | 1014.3 |
| 20260506155032 | 63 | 178 | 5.2 | 13.0 | 0.05 | 0.06 | 0.06 | 90 | 1014.7 |
| 20260506154532 | 63 | 186 | 6.1 | 10.4 | 0.06 | 0.06 | 0.06 | 90 | 1015.0 |
| 20260506154032 | 63 | 183 | 6.1 | 11.3 | 0.05 | 0.05 | 0.05 | 90 | 1015.1 |
| 20260506153532 | 63 | 205 | 7.0 | 11.3 | 0.05 | 0.05 | 0.05 | 90 | 1015.4 |
| 20260506153032 | 63 | 176 | 7.0 | 11.3 | 0.05 | 0.05 | 0.05 | 89 | 1015.5 |
| 20260506152533 | 63 | 167 | 7.0 | 12.2 | 0.05 | 0.05 | 0.05 | 89 | 1015.5 |
| 20260506152030 | 63 | 201 | 8.7 | 12.2 | 0.04 | 0.04 | 0.04 | 89 | 1015.6 |
| 20260506151528 | 63 | 189 | 7.8 | 14.8 | 0.04 | 0.04 | 0.04 | 88 | 1015.5 |
| 20260506151027 | 64 | 205 | 9.6 | 15.6 | 0.03 | 0.03 | 0.03 | 88 | 1015.8 |
| 20260506150526 | 64 | 179 | 9.6 | 16.5 | 0.02 | 0.02 | 0.02 | 87 | 1015.5 |
| 20260506150025 | 64 | 166 | 8.7 | 12.2 | 0.02 | 0.02 | 0.02 | 86 | 1015.6 |
| 20260506145525 | 64 | 153 | 7.8 | 13.9 | 0.01 | 0.01 | 0.01 | 86 | 1015.5 |
| 20260506145024 | 64 | 203 | 8.7 | 13.9 | 0.01 | 0.01 | 0.01 | 85 | 1015.4 |
| 20260506144530 | 64 | 182 | 8.7 | 15.6 | 0.00 | 0.00 | 0.00 | 85 | 1015.7 |
| 20260506144025 | 64 | 165 | 9.6 | 15.6 | 0.00 | 0.00 | 0.00 | 84 | 1015.6 |
| 20260506143523 | 65 | 186 | 7.8 | 14.8 | 0.00 | 0.00 | 0.00 | 85 | 1015.7 |
| 20260506143032 | 65 | 188 | 10.4 | 14.8 | 0.00 | 0.00 | 0.00 | 84 | 1015.8 |
| 20260506142526 | 65 | 200 | 8.7 | 13.0 | 0.00 | 0.00 | 0.00 | 83 | 1015.6 |
| 20260506142022 | 65 | 205 | 8.7 | 14.8 | 0.00 | 0.00 | 0.00 | 83 | 1015.6 |
| 20260506141522 | 65 | 210 | 10.4 | 14.8 | 0.00 | 0.00 | 0.00 | 81 | 1015.6 |
| 20260506141022 | 65 | 183 | 9.6 | 14.8 | 0.00 | 0.00 | 0.00 | 81 | 1015.7 |
| 20260506140522 | 65 | 198 | 8.7 | 15.6 | 0.00 | 0.00 | 0.00 | 82 | 1015.6 |
| 20260506140022 | 65 | 202 | 10.4 | 15.6 | 0.00 | 0.00 | 0.00 | 82 | 1015.6 |
| 20260506135521 | 65 | 190 | 10.4 | 16.5 | 0.00 | 0.00 | 0.00 | 81 | 1015.6 |
| 20260506135021 | 65 | 172 | 11.3 | 16.5 | 0.00 | 0.00 | 0.00 | 80 | 1015.7 |
| 20260506134521 | 65 | 205 | 9.6 | 16.5 | 0.00 | 0.00 | 0.00 | 81 | 1015.6 |
| 20260506134020 | 65 | 193 | 11.3 | 19.1 | 0.00 | 0.00 | 0.00 | 80 | 1015.5 |
| 20260506133520 | 65 | 193 | 10.4 | 19.1 | 0.00 | 0.00 | 0.00 | 80 | 1015.5 |
| 20260506133021 | 65 | 175 | 11.3 | 17.4 | 0.00 | 0.00 | 0.00 | 80 | 1015.4 |
| 20260506132519 | 66 | 199 | 11.3 | 17.4 | 0.00 | 0.00 | 0.00 | 79 | 1015.4 |
| 20260506132019 | 66 | 183 | 8.7 | 14.8 | 0.00 | 0.00 | 0.00 | 79 | 1015.4 |
| 20260506131519 | 66 | 191 | 9.6 | 15.6 | 0.00 | 0.00 | 0.00 | 78 | 1015.3 |
| 20260506131018 | 66 | 176 | 10.4 | 15.6 | 0.00 | 0.00 | 0.00 | 79 | 1015.4 |
| 20260506130521 | 65 | 155 | 10.4 | 16.5 | 0.00 | 0.00 | 0.00 | 79 | 1015.3 |
| 20260506130020 | 65 | 212 | 9.6 | 18.2 | 0.00 | 0.00 | 0.00 | 79 | 1015.4 |
| 20260506125517 | 65 | 169 | 10.4 | 18.2 | 0.00 | 0.00 | 0.00 | 79 | 1015.5 |
| 20260506125020 | 65 | 207 | 12.2 | 18.2 | 0.00 | 0.00 | 0.00 | 79 | 1015.6 |
| 20260506124517 | 65 | 186 | 10.4 | 20.0 | 0.00 | 0.00 | 0.00 | 78 | 1015.5 |
| 20260506124016 | 65 | 207 | 10.4 | 20.0 | 0.00 | 0.00 | 0.00 | 78 | 1015.5 |
| 20260506123516 | 65 | 203 | 13.0 | 20.0 | 0.00 | 0.00 | 0.00 | 79 | 1015.6 |
| 20260506123017 | 65 | 133 | 13.0 | 20.0 | 0.00 | 0.00 | 0.00 | 78 | 1015.6 |
| 20260506122517 | 65 | 158 | 13.0 | 20.0 | 0.00 | 0.00 | 0.00 | 78 | 1015.7 |
| 20260506122114 | 65 | 182 | 13.0 | 20.9 | 0.00 | 0.00 | 0.00 | 79 | 1015.6 |
| 20260506121516 | 65 | 204 | 12.2 | 20.0 | 0.00 | 0.00 | 0.00 | 78 | 1015.7 |
| 20260506121012 | 65 | 169 | 13.0 | 19.1 | 0.00 | 0.00 | 0.00 | 79 | 1015.7 |
| 20260506120512 | 65 | 196 | 12.2 | 20.0 | 0.00 | 0.00 | 0.00 | 78 | 1015.6 |
| 20260506120011 | 65 | 188 | 14.8 | 20.0 | 0.00 | 0.00 | 0.00 | 78 | 1015.6 |
| 20260506115509 | 65 | 208 | 10.4 | 19.1 | 0.00 | 0.00 | 0.00 | 78 | 1015.6 |
| 20260506115009 | 65 | 201 | 9.6 | 19.1 | 0.00 | 0.00 | 0.00 | 79 | 1015.5 |
| 20260506114511 | 65 | 171 | 12.2 | 19.1 | 0.00 | 0.00 | 0.00 | 79 | 1015.5 |
| 20260506114008 | 65 | 176 | 11.3 | 19.1 | 0.00 | 0.00 | 0.00 | 79 | 1015.5 |
| 20260506113508 | 65 | 186 | 11.3 | 19.1 | 0.00 | 0.00 | 0.00 | 78 | 1015.4 |
| 20260506113009 | 65 | 194 | 10.4 | 18.2 | 0.00 | 0.00 | 0.00 | 79 | 1015.4 |
| 20260506112506 | 65 | 191 | 8.7 | 18.2 | 0.00 | 0.00 | 0.00 | 80 | 1015.3 |
| 20260506112006 | 65 | 175 | 7.8 | 16.5 | 0.00 | 0.00 | 0.00 | 80 | 1015.2 |
| 20260506111505 | 65 | 193 | 9.6 | 16.5 | 0.00 | 0.00 | 0.00 | 80 | 1015.4 |
| 20260506111003 | 65 | 198 | 8.7 | 15.6 | 0.00 | 0.00 | 0.00 | 80 | 1015.3 |
| 20260506110502 | 65 | 151 | 7.8 | 15.6 | 0.00 | 0.00 | 0.00 | 81 | 1015.2 |
| 20260506110002 | 65 | 136 | 6.1 | 14.8 | 0.00 | 0.00 | 0.00 | 81 | 1015.1 |
| 20260506105502 | 65 | 196 | 7.8 | 14.8 | 0.00 | 0.00 | 0.00 | 81 | 1015.2 |
| 20260506105002 | 65 | 204 | 7.8 | 18.2 | 0.00 | 0.00 | 0.00 | 82 | 1015.1 |
| 20260506104501 | 65 | 200 | 11.3 | 18.2 | 0.00 | 0.00 | 0.00 | 82 | 1015.1 |
| 20260506104100 | 65 | 161 | 9.6 | 14.8 | 0.00 | 0.00 | 0.00 | 82 | 1015.1 |
| 20260506103559 | 65 | 150 | 7.8 | 15.6 | 0.00 | 0.00 | 0.00 | 82 | 1015.1 |
| 20260506103100 | 65 | 213 | 8.7 | 15.6 | 0.00 | 0.00 | 0.00 | 82 | 1015.1 |
| 20260506102600 | 64 | 176 | 10.4 | 15.6 | 0.00 | 0.00 | 0.00 | 82 | 1015.1 |
| 20260506102059 | 64 | 169 | 8.7 | 15.6 | 0.00 | 0.00 | 0.00 | 82 | 1014.9 |
| 20260506101558 | 64 | 173 | 8.7 | 15.6 | 0.00 | 0.00 | 0.00 | 82 | 1015.1 |
| 20260506101055 | 64 | 165 | 7.8 | 13.9 | 0.00 | 0.00 | 0.00 | 83 | 1015.0 |
| 20260506100556 | 64 | 179 | 8.7 | 14.8 | 0.00 | 0.00 | 0.00 | 83 | 1015.2 |
| 20260506100055 | 64 | 145 | 8.7 | 16.5 | 0.00 | 0.00 | 0.00 | 83 | 1015.3 |
| 20260506095554 | 64 | 176 | 9.6 | 17.4 | 0.00 | 0.00 | 0.00 | 83 | 1015.3 |
| 20260506095054 | 64 | 193 | 8.7 | 15.6 | 0.00 | 0.00 | 0.00 | 83 | 1015.2 |
| 20260506094554 | 65 | 194 | 8.7 | 17.4 | 0.00 | 0.00 | 0.00 | 83 | 1015.2 |
| 20260506094052 | 65 | 200 | 9.6 | 18.2 | 0.00 | 0.00 | 0.00 | 83 | 1015.2 |
| 20260506093551 | 65 | 182 | 11.3 | 18.2 | 0.00 | 0.00 | 0.00 | 82 | 1015.3 |
| 20260506093053 | 65 | 190 | 8.7 | 15.6 | 0.00 | 0.00 | 0.00 | 82 | 1015.1 |
| 20260506092550 | 65 | 167 | 7.8 | 15.6 | 0.00 | 0.00 | 0.00 | 83 | 1015.1 |
| 20260506092051 | 65 | 194 | 10.4 | 16.5 | 0.00 | 0.00 | 0.00 | 83 | 1015.2 |
| 20260506091549 | 65 | 192 | 10.4 | 16.5 | 0.00 | 0.00 | 0.00 | 82 | 1015.2 |
| 20260506091047 | 65 | 202 | 10.4 | 16.5 | 0.00 | 0.00 | 0.00 | 82 | 1015.1 |
| 20260506090548 | 65 | 205 | 8.7 | 14.8 | 0.00 | 0.00 | 0.00 | 82 | 1015.2 |
| 20260506090046 | 65 | 150 | 9.6 | 15.6 | 0.00 | 0.00 | 0.00 | 82 | 1015.2 |
| 20260506085546 | 65 | 188 | 9.6 | 17.4 | 0.00 | 0.00 | 0.00 | 82 | 1015.2 |
| 20260506085045 | 65 | 184 | 11.3 | 17.4 | 0.00 | 0.00 | 0.00 | 82 | 1015.2 |
| 20260506084544 | 65 | 169 | 8.7 | 16.5 | 0.00 | 0.00 | 0.00 | 82 | 1015.2 |
| 20260506084044 | 65 | 151 | 8.7 | 15.6 | 0.00 | 0.00 | 0.00 | 82 | 1015.1 |
| 20260506083543 | 65 | 156 | 7.8 | 17.4 | 0.00 | 0.00 | 0.00 | 82 | 1015.0 |
| 20260506083045 | 65 | 175 | 8.7 | 17.4 | 0.00 | 0.00 | 0.00 | 81 | 1014.9 |
| 20260506082543 | 65 | 193 | 11.3 | 17.4 | 0.00 | 0.00 | 0.00 | 81 | 1014.8 |
| 20260506082040 | 65 | 196 | 8.7 | 16.5 | 0.00 | 0.00 | 0.00 | 81 | 1014.8 |
| 20260506081539 | 65 | 191 | 8.7 | 16.5 | 0.00 | 0.00 | 0.00 | 81 | 1014.9 |
| 20260506081037 | 66 | 150 | 7.8 | 16.5 | 0.00 | 0.00 | 0.00 | 81 | 1014.9 |
| 20260506080540 | 65 | 178 | 7.8 | 15.6 | 0.00 | 0.00 | 0.00 | 81 | 1014.9 |
| 20260506073030 | 66 | 214 | 9.6 | 16.5 | 0.00 | 0.00 | 0.00 | 81 | 1015.3 |
| 20260506072528 | 66 | 161 | 8.7 | 16.5 | 0.00 | 0.00 | 0.00 | 81 | 1015.4 |
| 20260506072028 | 66 | 210 | 10.4 | 19.1 | 0.00 | 0.00 | 0.00 | 81 | 1015.3 |
| 20260506071527 | 66 | 194 | 10.4 | 17.4 | 0.00 | 0.00 | 0.00 | 81 | 1015.2 |
| 20260506071025 | 67 | 209 | 11.3 | 17.4 | 0.00 | 0.00 | 0.00 | 80 | 1015.3 |
| 20260506070524 | 67 | 157 | 10.4 | 18.2 | 0.00 | 0.00 | 0.00 | 80 | 1015.3 |